LAN434 SCEL-SAME

Flight info

Callsign LAN434
Flight time 0h 30m
Altitude 25000
Route ALBA7C ALBAL UT652 ESITO ESIT2Q
Aircraft A20N/M-SDE2E3FGHIRWXY/LB1

Departure

Time 2026-05-07 17:37
Airport Comodoro Arturo Merino Benítez International Airport (SCEL)

Arrival

Time 2026-05-07 18:08
Airport Governor Francisco Gabrielli International Airport (SAME)
Time Latitude Longitude Altitude Speed Heading
2026-05-07 17:13 -33.39713 -70.79011 1529 ft 0 kts 355°
2026-05-07 17:24 -33.39731 -70.79009 1567 ft 3 kts 355°
2026-05-07 17:25 -33.39749 -70.79008 1567 ft 3 kts 355°
2026-05-07 17:25 -33.39768 -70.79006 1567 ft 3 kts 355°
2026-05-07 17:25 -33.39787 -70.79006 1567 ft 3 kts 21°
2026-05-07 17:25 -33.39802 -70.79019 1567 ft 3 kts 61°
2026-05-07 17:26 -33.39806 -70.79040 1567 ft 2 kts 89°
2026-05-07 17:26 -33.39807 -70.79043 1567 ft 0 kts 89°
2026-05-07 17:32 -33.39806 -70.79014 1567 ft 4 kts 89°
2026-05-07 17:32 -33.39806 -70.78950 1567 ft 14 kts 89°
2026-05-07 17:33 -33.39772 -70.78869 1567 ft 10 kts 47°
2026-05-07 17:33 -33.39738 -70.78780 1567 ft 14 kts 36°
2026-05-07 17:33 -33.39615 -70.78778 1567 ft 22 kts 357°
2026-05-07 17:33 -33.39434 -70.78789 1567 ft 30 kts 358°
2026-05-07 17:34 -33.39235 -70.78798 1567 ft 28 kts 358°
2026-05-07 17:34 -33.39049 -70.78810 1567 ft 27 kts 357°
2026-05-07 17:34 -33.38855 -70.78820 1567 ft 28 kts 358°
2026-05-07 17:34 -33.38661 -70.78829 1567 ft 28 kts 358°
2026-05-07 17:35 -33.38462 -70.78840 1567 ft 29 kts 357°
2026-05-07 17:35 -33.38261 -70.78851 1567 ft 28 kts 358°
2026-05-07 17:35 -33.38059 -70.78861 1567 ft 29 kts 358°
2026-05-07 17:35 -33.37855 -70.78872 1567 ft 29 kts 357°
2026-05-07 17:36 -33.37666 -70.78879 1567 ft 21 kts 13°
2026-05-07 17:36 -33.37618 -70.78747 1567 ft 18 kts 91°
2026-05-07 17:36 -33.37680 -70.78665 1568 ft 13 kts 175°
2026-05-07 17:36 -33.37906 -70.78654 1567 ft 61 kts 177°
2026-05-07 17:37 -33.38549 -70.78619 1568 ft 122 kts 177°
2026-05-07 17:37 -33.39567 -70.78565 1642 ft 162 kts 178°
2026-05-07 17:37 -33.40634 -70.78500 2378 ft 151 kts 177°
2026-05-07 17:37 -33.41748 -70.78429 2848 ft 166 kts 177°
2026-05-07 17:38 -33.42939 -70.78356 3405 ft 181 kts 178°
2026-05-07 17:38 -33.44294 -70.78276 3741 ft 214 kts 178°
2026-05-07 17:38 -33.45930 -70.78180 4061 ft 251 kts 178°
2026-05-07 17:38 -33.47716 -70.78070 4798 ft 266 kts 178°
2026-05-07 17:39 -33.49601 -70.77952 5717 ft 273 kts 179°
2026-05-07 17:39 -33.51512 -70.77838 6668 ft 279 kts 179°
2026-05-07 17:39 -33.53462 -70.77721 7559 ft 283 kts 179°
2026-05-07 17:39 -33.55440 -70.77602 8526 ft 285 kts 179°
2026-05-07 17:40 -33.57430 -70.77482 9508 ft 287 kts 179°
2026-05-07 17:40 -33.59416 -70.77361 10426 ft 289 kts 179°
2026-05-07 17:40 -33.61490 -70.77236 10948 ft 307 kts 179°
2026-05-07 17:40 -33.63689 -70.77104 11296 ft 329 kts 179°
2026-05-07 17:41 -33.66030 -70.76961 11816 ft 344 kts 179°
2026-05-07 17:41 -33.68450 -70.76811 12643 ft 348 kts 179°
2026-05-07 17:41 -33.70879 -70.76661 13569 ft 349 kts 180°
2026-05-07 17:41 -33.73291 -70.76512 14465 ft 350 kts 180°
2026-05-07 17:42 -33.75733 -70.76361 15322 ft 349 kts 180°
2026-05-07 17:42 -33.78144 -70.76167 16128 ft 352 kts 177°
2026-05-07 17:42 -33.80556 -70.75445 16912 ft 361 kts 162°
2026-05-07 17:42 -33.82714 -70.73861 17686 ft 375 kts 145°
2026-05-07 17:43 -33.84414 -70.71394 18428 ft 391 kts 128°
2026-05-07 17:43 -33.85679 -70.68423 18989 ft 401 kts 122°
2026-05-07 17:43 -33.86828 -70.65368 19483 ft 408 kts 121°
2026-05-07 17:43 -33.88002 -70.62205 20007 ft 412 kts 121°
2026-05-07 17:44 -33.89175 -70.59065 20478 ft 416 kts 122°
2026-05-07 17:44 -33.90387 -70.55853 21017 ft 420 kts 122°
2026-05-07 17:44 -33.91593 -70.52669 21539 ft 424 kts 122°
2026-05-07 17:44 -33.92825 -70.49421 22001 ft 425 kts 122°
2026-05-07 17:45 -33.94062 -70.46162 22519 ft 428 kts 122°
2026-05-07 17:45 -33.95299 -70.42905 22915 ft 434 kts 122°
2026-05-07 17:45 -33.96564 -70.39573 23376 ft 438 kts 122°
2026-05-07 17:45 -33.97828 -70.36238 23870 ft 441 kts 122°
2026-05-07 17:46 -33.99114 -70.32841 24345 ft 444 kts 123°
2026-05-07 17:46 -34.00388 -70.29473 24776 ft 446 kts 123°
2026-05-07 17:46 -34.01689 -70.26030 25154 ft 448 kts 123°
2026-05-07 17:46 -34.02981 -70.22610 25275 ft 450 kts 123°
2026-05-07 17:47 -34.04273 -70.19189 25298 ft 452 kts 123°
2026-05-07 17:47 -34.05567 -70.15757 25305 ft 452 kts 123°
2026-05-07 17:47 -34.06870 -70.12292 25290 ft 452 kts 123°
2026-05-07 17:47 -34.08162 -70.08855 25296 ft 453 kts 123°
2026-05-07 17:48 -34.09463 -70.05395 25287 ft 451 kts 123°
2026-05-07 17:48 -34.10754 -70.01956 25287 ft 452 kts 123°
2026-05-07 17:48 -34.12063 -69.98467 25283 ft 451 kts 123°
2026-05-07 17:48 -34.13351 -69.95026 25264 ft 451 kts 123°
2026-05-07 17:49 -34.14629 -69.91608 25258 ft 450 kts 123°
2026-05-07 17:49 -34.15926 -69.88138 25251 ft 451 kts 123°
2026-05-07 17:49 -34.17058 -69.84593 25249 ft 461 kts 114°
2026-05-07 17:49 -34.17501 -69.80675 25215 ft 479 kts 97°
2026-05-07 17:50 -34.17032 -69.76672 25217 ft 494 kts 81°
2026-05-07 17:50 -34.15919 -69.72689 25197 ft 500 kts 75°
2026-05-07 17:50 -34.14696 -69.68795 25178 ft 501 kts 75°
2026-05-07 17:50 -34.13456 -69.64827 25166 ft 501 kts 75°
2026-05-07 17:51 -34.12258 -69.60919 25137 ft 500 kts 76°
2026-05-07 17:51 -34.11068 -69.56986 25126 ft 500 kts 76°
2026-05-07 17:51 -34.09876 -69.53024 25098 ft 501 kts 76°
2026-05-07 17:51 -34.08684 -69.49039 25096 ft 501 kts 76°
2026-05-07 17:52 -34.07512 -69.45120 25072 ft 500 kts 76°
2026-05-07 17:52 -34.06340 -69.41194 25064 ft 500 kts 76°
2026-05-07 17:52 -34.05151 -69.37214 25049 ft 500 kts 77°
2026-05-07 17:52 -34.03979 -69.33298 25033 ft 500 kts 77°
2026-05-07 17:53 -34.02792 -69.29337 25016 ft 499 kts 77°
2026-05-07 17:53 -34.01623 -69.25435 25011 ft 499 kts 77°
2026-05-07 17:53 -34.00435 -69.21477 25000 ft 500 kts 77°
2026-05-07 17:53 -33.99257 -69.17555 24972 ft 500 kts 77°
2026-05-07 17:54 -33.98074 -69.13620 24767 ft 502 kts 77°
2026-05-07 17:54 -33.96879 -69.09664 24314 ft 495 kts 77°
2026-05-07 17:54 -33.95709 -69.05795 23738 ft 492 kts 77°
2026-05-07 17:54 -33.94534 -69.01904 22962 ft 492 kts 77°
2026-05-07 17:55 -33.93376 -68.98078 22292 ft 488 kts 77°
2026-05-07 17:55 -33.92184 -68.94235 21530 ft 489 kts 73°
2026-05-07 17:55 -33.90506 -68.90688 20924 ft 495 kts 57°
2026-05-07 17:55 -33.88058 -68.87727 20262 ft 499 kts 39°
2026-05-07 17:56 -33.85045 -68.85665 19583 ft 497 kts 21°
2026-05-07 17:56 -33.81737 -68.84681 19012 ft 488 kts
2026-05-07 17:56 -33.78398 -68.84621 18344 ft 481 kts 355°
2026-05-07 17:56 -33.75049 -68.84724 17555 ft 478 kts 356°
2026-05-07 17:57 -33.71766 -68.84709 16868 ft 472 kts 358°
2026-05-07 17:57 -33.69591 -68.84635 16410 ft 465 kts 359°
2026-05-07 17:57 -33.65386 -68.84393 15510 ft 444 kts
2026-05-07 17:57 -33.62339 -68.84169 14869 ft 429 kts
2026-05-07 17:58 -33.59385 -68.83930 14226 ft 416 kts
2026-05-07 17:58 -33.56561 -68.83690 13580 ft 404 kts
2026-05-07 17:58 -33.53789 -68.83449 12933 ft 399 kts
2026-05-07 17:58 -33.51042 -68.83208 12335 ft 395 kts
2026-05-07 17:59 -33.48305 -68.82964 11720 ft 392 kts
2026-05-07 17:59 -33.45590 -68.82720 11120 ft 389 kts
2026-05-07 17:59 -33.43799 -68.82559 10888 ft 382 kts
2026-05-07 17:59 -33.40380 -68.82246 10722 ft 360 kts
2026-05-07 18:00 -33.38737 -68.82096 10650 ft 349 kts
2026-05-07 18:00 -33.35617 -68.81812 10491 ft 326 kts
2026-05-07 18:00 -33.34127 -68.81678 10323 ft 318 kts
2026-05-07 18:00 -33.31174 -68.81414 9625 ft 321 kts
2026-05-07 18:01 -33.29699 -68.81282 9441 ft 315 kts
2026-05-07 18:01 -33.27524 -68.81086 9047 ft 311 kts
2026-05-07 18:01 -33.25353 -68.80891 8612 ft 310 kts
2026-05-07 18:01 -33.23256 -68.80702 8292 ft 304 kts
2026-05-07 18:02 -33.19027 -68.80322 7446 ft 296 kts
2026-05-07 18:02 -33.17002 -68.80139 6940 ft 293 kts
2026-05-07 18:02 -33.14985 -68.79957 6544 ft 285 kts
2026-05-07 18:03 -33.13059 -68.79794 6331 ft 272 kts
2026-05-07 18:03 -33.11219 -68.79720 6181 ft 255 kts
2026-05-07 18:03 -33.09495 -68.79686 6075 ft 243 kts
2026-05-07 18:03 -33.07834 -68.79660 5953 ft 237 kts
2026-05-07 18:04 -33.06173 -68.79635 5823 ft 238 kts
2026-05-07 18:04 -33.04533 -68.79609 5658 ft 236 kts
2026-05-07 18:04 -33.02890 -68.79584 5414 ft 234 kts
2026-05-07 18:04 -33.01263 -68.79560 5166 ft 232 kts
2026-05-07 18:05 -32.99665 -68.79536 4999 ft 228 kts
2026-05-07 18:05 -32.98103 -68.79518 4890 ft 221 kts
2026-05-07 18:05 -32.96506 -68.79495 4829 ft 236 kts
2026-05-07 18:05 -32.94849 -68.79466 4438 ft 240 kts
2026-05-07 18:06 -32.93210 -68.79439 4043 ft 226 kts
2026-05-07 18:06 -32.91713 -68.79414 3768 ft 207 kts
2026-05-07 18:06 -32.90326 -68.79391 3521 ft 188 kts
2026-05-07 18:06 -32.89076 -68.79371 3296 ft 173 kts 359°
2026-05-07 18:07 -32.87929 -68.79354 3130 ft 157 kts 359°
2026-05-07 18:07 -32.86876 -68.79341 2884 ft 146 kts
2026-05-07 18:07 -32.85900 -68.79329 2643 ft 134 kts
2026-05-07 18:07 -32.84969 -68.79317 2453 ft 139 kts
2026-05-07 18:08 -32.84060 -68.79303 2323 ft 120 kts 360°
2026-05-07 18:08 -32.83468 -68.79295 2320 ft 43 kts
2026-05-07 18:08 -32.83261 -68.79292 2317 ft 28 kts
2026-05-07 18:08 -32.83069 -68.79288 2315 ft 27 kts
2026-05-07 18:09 -32.82880 -68.79285 2316 ft 27 kts
2026-05-07 18:09 -32.82684 -68.79283 2314 ft 30 kts
2026-05-07 18:09 -32.82557 -68.79298 2309 ft 11 kts 316°
2026-05-07 18:09 -32.82566 -68.79403 2311 ft 15 kts 226°
2026-05-07 18:10 -32.82636 -68.79490 2320 ft 14 kts 227°
2026-05-07 18:10 -32.82674 -68.79599 2310 ft 15 kts 262°
2026-05-07 18:10 -32.82703 -68.79704 2317 ft 14 kts 200°
2026-05-07 18:10 -32.82790 -68.79710 2311 ft 5 kts 197°
2026-05-07 18:11 -32.82805 -68.79737 2315 ft 4 kts 250°
2026-05-07 18:11 -32.82809 -68.79768 2310 ft 2 kts 271°
2026-05-07 18:11 -32.82809 -68.79777 2309 ft 0 kts 270°